Algona, IA

1:21 AM CDT on April 27, 2017 (GMT -0500)
Algona Municipal

Weather History for KAXA - May, 2014

Change the Weather History Date:

Monday, May 26, 2014

  Actual Average Record
Temperature  
Mean Temperature 73 °F -  
Max Temperature 84 °F 69 °F 84 °F (2014)
Min Temperature 62 °F 51 °F 44 °F (1997)
Cooling Degree Days 8    
Growing Degree Days 23 (Base 50)    
Moisture  
Dew Point 63 °F    
Average Humidity 80    
Maximum Humidity 100    
Minimum Humidity 45    
Precipitation  
Precipitation 0.71 in - - ()
Sea Level Pressure  
Sea Level Pressure 29.94 in    
Wind  
Wind Speed 10 mph (South)    
Max Wind Speed 20 mph    
Max Gust Speed 29 mph    
Visibility 9 miles    
Events Rain    
Averages and records for this station are not official NWS values.
T = Trace of Precipitation, MM = Missing Value Source: NWS Daily Summary

Daily Weather History Graph

Daily Weather History Graph

Search for Another Location

Airport or City:

Trip Planner

Search our weather history database for the weather conditions in past years. The results will help you decide how hot, cold, wet, or windy it might be!

Date:

Astronomy

May. 26, 2014 Rise Set
Actual Time 5:44 AM CDT 8:44 PM CDT
Civil Twilight 5:10 AM CDT 9:18 PM CDT
Nautical Twilight 4:26 AM CDT 10:02 PM CDT
Astronomical Twilight 3:35 AM CDT 10:53 PM CDT
Moon 4:30 AM CDT (5/26) 6:45 PM CDT (5/26)
Length of Visible Light 16h 08m
Length of Day
15h 00m
Waning Crescent, 5% of the Moon is Illuminated
May 26
Waning Crescent
May 28
New
Jun 5
First Quarter
Jun 12
Full
Jun 19
Last Quarter

Hourly Weather History & Observations

Time (CDT) Temp. Heat Index Dew Point Humidity Pressure Visibility Wind Dir Wind Speed Gust Speed Precip Events Conditions
12:15 AM 68.0 °F - 62.6 °F 83% 29.97 in 10.0 mi SSW 13.8 mph - N/A   Clear
12:35 AM 68.0 °F - 62.6 °F 83% 29.97 in 10.0 mi SSW 15.0 mph - N/A   Clear
12:55 AM 68.0 °F - 62.6 °F 83% 29.96 in 10.0 mi South 15.0 mph - N/A   Clear
1:15 AM 66.2 °F - 62.6 °F 88% 29.96 in 10.0 mi SSW 12.7 mph - N/A   Clear
1:35 AM 66.2 °F - 62.6 °F 88% 29.96 in 10.0 mi SSW 11.5 mph - N/A   Clear
1:55 AM 66.2 °F - 62.6 °F 88% 29.95 in 10.0 mi South 13.8 mph - N/A   Clear
2:15 AM 66.2 °F - 62.6 °F 88% 29.94 in 10.0 mi SSW 12.7 mph - N/A   Clear
2:35 AM 66.2 °F - 62.6 °F 88% 29.94 in 10.0 mi SSW 11.5 mph - N/A   Clear
2:55 AM 64.4 °F - 62.6 °F 94% 29.94 in 10.0 mi SSW 10.4 mph - N/A   Clear
3:15 AM 64.4 °F - 60.8 °F 88% 29.93 in 10.0 mi SSW 9.2 mph - N/A   Clear
3:35 AM 64.4 °F - 60.8 °F 88% 29.93 in 10.0 mi SSW 6.9 mph - N/A   Clear
3:55 AM 62.6 °F - 60.8 °F 94% 29.93 in 10.0 mi South 5.8 mph - N/A   Clear
4:15 AM 62.6 °F - 60.8 °F 94% 29.92 in 10.0 mi SE 3.5 mph - N/A   Clear
4:35 AM 62.6 °F - 60.8 °F 94% 29.93 in 10.0 mi SE 6.9 mph - N/A   Clear
4:55 AM 62.6 °F - 60.8 °F 94% 29.94 in 10.0 mi ESE 3.5 mph - N/A   Clear
5:15 AM 62.6 °F - 60.8 °F 94% 29.95 in 10.0 mi NNE 3.5 mph - N/A   Clear
5:35 AM 62.6 °F - 60.8 °F 94% 29.96 in 10.0 mi Calm Calm - N/A   Clear
5:55 AM 62.6 °F - 60.8 °F 94% 29.96 in 10.0 mi NE 3.5 mph - N/A   Scattered Clouds
6:15 AM 62.6 °F - 60.8 °F 94% 29.98 in 10.0 mi Calm Calm - N/A   Mostly Cloudy
6:35 AM 62.6 °F - 60.8 °F 94% 29.97 in 10.0 mi ESE 4.6 mph - N/A   Mostly Cloudy
6:55 AM 62.6 °F - 60.8 °F 94% 29.98 in 8.0 mi SE 4.6 mph - N/A   Mostly Cloudy
7:15 AM 62.6 °F - 62.6 °F 100% 29.98 in 10.0 mi SSE 6.9 mph - N/A   Overcast
7:35 AM 66.2 °F - 62.6 °F 88% 29.98 in 10.0 mi SSE 6.9 mph - N/A   Mostly Cloudy
7:55 AM 66.2 °F - 64.4 °F 94% 29.98 in 10.0 mi South 9.2 mph - N/A   Scattered Clouds
8:15 AM 68.0 °F - 64.4 °F 88% 29.98 in 10.0 mi South 9.2 mph - N/A   Partly Cloudy
8:35 AM 68.0 °F - 64.4 °F 88% 29.98 in 10.0 mi South 11.5 mph - N/A   Clear
8:55 AM 68.0 °F - 64.4 °F 88% 29.98 in 10.0 mi South 9.2 mph - N/A   Clear
9:15 AM 69.8 °F - 64.4 °F 83% 29.98 in 10.0 mi South 12.7 mph - N/A   Clear
9:35 AM 69.8 °F - 64.4 °F 83% 29.98 in 10.0 mi South 11.5 mph - N/A   Clear
10:15 AM 73.4 °F - 64.4 °F 73% 29.98 in 10.0 mi South 11.5 mph - N/A   Partly Cloudy
10:55 AM 73.4 °F - 64.4 °F 73% 29.97 in 10.0 mi SSW 12.7 mph - N/A   Scattered Clouds
11:15 AM 73.4 °F - 62.6 °F 69% 29.97 in 10.0 mi SSW 9.2 mph - N/A   Scattered Clouds
11:35 AM 75.2 °F - 62.6 °F 65% 29.97 in 10.0 mi South 9.2 mph - N/A   Clear
11:55 AM 77.0 °F - 62.6 °F 61% 29.97 in 10.0 mi SSW 9.2 mph - N/A   Clear
12:15 PM 78.8 °F - 62.6 °F 57% 29.97 in 10.0 mi SW 12.7 mph - N/A   Partly Cloudy
12:35 PM 78.8 °F - 60.8 °F 54% 29.96 in 10.0 mi SSW 11.5 mph 19.6 mph N/A   Partly Cloudy
12:55 PM 80.6 °F 81.5 °F 60.8 °F 51% 29.95 in 10.0 mi South 15.0 mph - N/A   Clear
1:15 PM 78.8 °F - 60.8 °F 54% 29.95 in 10.0 mi SW 11.5 mph 21.9 mph N/A   Partly Cloudy
1:35 PM 82.4 °F 83.4 °F 62.6 °F 51% 29.94 in 10.0 mi South 17.3 mph 23.0 mph N/A   Partly Cloudy
1:55 PM 82.4 °F 83.4 °F 62.6 °F 51% 29.94 in 10.0 mi South 17.3 mph - N/A   Partly Cloudy
2:15 PM 82.4 °F 83.4 °F 62.6 °F 51% 29.93 in 10.0 mi South 17.3 mph 28.8 mph N/A   Clear
2:35 PM 80.6 °F 81.8 °F 62.6 °F 54% 29.92 in 10.0 mi SSW 16.1 mph 24.2 mph N/A   Clear
2:55 PM 82.4 °F 83.4 °F 62.6 °F 51% 29.91 in 10.0 mi South 17.3 mph - N/A   Scattered Clouds
3:15 PM 82.4 °F 82.9 °F 60.8 °F 48% 29.89 in 10.0 mi South 17.3 mph - N/A   Mostly Cloudy
3:35 PM 84.2 °F 84.4 °F 60.8 °F 45% 29.88 in 10.0 mi SSW 17.3 mph - N/A   Scattered Clouds
4:15 PM 82.4 °F 82.9 °F 60.8 °F 48% 29.88 in 10.0 mi SSW 17.3 mph 24.2 mph N/A   Mostly Cloudy
4:35 PM 82.4 °F 82.9 °F 60.8 °F 48% 29.88 in 10.0 mi SW 16.1 mph 23.0 mph N/A   Partly Cloudy
4:55 PM 82.4 °F 82.9 °F 60.8 °F 48% 29.88 in 10.0 mi SSW 16.1 mph 24.2 mph N/A   Scattered Clouds
5:15 PM 82.4 °F 82.9 °F 60.8 °F 48% 29.88 in 10.0 mi SSW 16.1 mph - N/A   Scattered Clouds
5:35 PM 82.4 °F 82.9 °F 60.8 °F 48% 29.88 in 10.0 mi WSW 12.7 mph - N/A   Mostly Cloudy
5:55 PM 71.6 °F - 64.4 °F 78% 29.89 in 10.0 mi NNW 19.6 mph 27.6 mph N/A   Mostly Cloudy
6:15 PM 69.8 °F - 64.4 °F 83% 29.91 in 10.0 mi NW 18.4 mph 25.3 mph N/A   Overcast
6:35 PM 68.0 °F - 64.4 °F 88% 29.91 in 2.5 mi NNW 13.8 mph 21.9 mph N/A Rain Rain
6:55 PM 66.2 °F - 64.4 °F 94% 29.92 in 0.5 mi NNE 3.5 mph 12.7 mph 0.36 in Rain Heavy Rain
7:15 PM 66.2 °F - 64.4 °F 94% 29.93 in 1.5 mi SE 5.8 mph - N/A Rain Heavy Rain
7:35 PM 64.4 °F - 64.4 °F 100% 29.90 in 3.0 mi Calm Calm - N/A Rain Light Rain
7:55 PM 64.4 °F - 64.4 °F 100% 29.90 in 9.0 mi Calm Calm - 0.35 in   Scattered Clouds
8:15 PM 66.2 °F - 64.4 °F 94% 29.91 in 10.0 mi NNE 3.5 mph - N/A   Clear
8:35 PM 66.2 °F - 64.4 °F 94% 29.91 in 10.0 mi Calm Calm - N/A   Clear
8:55 PM 66.2 °F - 62.6 °F 88% 29.92 in 10.0 mi Calm Calm - N/A   Clear
9:15 PM 66.2 °F - 64.4 °F 94% 29.94 in 10.0 mi SE 4.6 mph - N/A   Clear
9:55 PM 64.4 °F - 64.4 °F 100% 29.94 in 10.0 mi SSE 4.6 mph - N/A   Clear
10:15 PM 64.4 °F - 64.4 °F 100% 29.95 in 10.0 mi Calm Calm - N/A   Clear
10:35 PM 66.2 °F - 64.4 °F 94% 29.95 in 10.0 mi Calm Calm - N/A   Clear
10:55 PM 66.2 °F - 64.4 °F 94% 29.94 in 10.0 mi Calm Calm - N/A   Clear
11:15 PM 64.4 °F - 64.4 °F 100% 29.94 in 9.0 mi Calm Calm - N/A   Clear
11:35 PM 64.4 °F - 64.4 °F 100% 29.92 in 5.0 mi Calm Calm - N/A   Clear
11:55 PM 64.4 °F - 64.4 °F 100% 29.92 in 5.0 mi South 4.6 mph - N/A   Clear